Home   Weather   Provincetown   Past weeks

Flag for USA Past Weather in Provincetown, Massachusetts, USA — Yesterday and Last 2 Weeks

Now
34 °F

Scattered clouds.


Feels Like: 22 °F
Forecast: 30 / 37 °F
Wind: 21 mph from West

Location: Provincetown Weather Reporting Station

Current Time: Dec 9, 2016 at 8:54:01 am

Latest Report: Dec 9, 2016 at 7:56 am


Visibility: 10 mi

Pressure: 29.90 "Hg

Humidity: 61%

Dew Point: 22 °F

Location of ProvincetownLocation

Past Weather in Provincetown — Graph

°F

Provincetown Temperature Yesterday

Maximum temperature yesterday: 45 °F (at 11:56 am)
Minimum temperature yesterday: 36 °F (at 11:56 pm)
Average temperature yesterday: 42 °F

High & Low Weather Summary for the Past Weeks

 TemperatureHumidityPressure
High57 °F (Dec 1, 6:56 am)100% (Nov 26, 12:56 am)30.36 "Hg (Nov 26, 12:56 am)
Low30 °F (Nov 29, 1:56 am)49% (Dec 4, 5:56 pm)29.42 "Hg (Dec 1, 6:56 am)
Average44 °F75%29.98 "Hg
* Reported Nov 24 6:56 am — Dec 9 6:56 am, Provincetown, Weather by CustomWeather, © 2016

Note: Actual official high and low records may vary slightly from our data, if they occured in-between our weather recording intervals... More about our weather records

Advertising

Provincetown Weather History for the Previous 24 Hours

Scroll right to see more
 ConditionsComfort  
Time TempWeatherWind HumidityBarometerVisibility
6:56 am
Fri, Dec 9
34 °FClear.23 mph61%29.89 "Hg10 mi
5:56 am34 °FClear.23 mph59%29.86 "Hg10 mi
4:56 am34 °FClear.20 mph56%29.85 "Hg10 mi
3:56 am34 °FClear.20 mph54%29.85 "Hg10 mi
2:56 am35 °FClear.22 mph54%29.85 "Hg10 mi
1:56 am35 °FClear.20 mph56%29.84 "Hg10 mi
12:56 am35 °FClear.16 mph59%29.83 "Hg10 mi
11:56 pm
Thu, Dec 8
36 °FClear.18 mph57%29.82 "Hg10 mi
10:56 pm37 °FClear.22 mph60%29.83 "Hg10 mi
9:56 pm39 °FClear.23 mph53%29.81 "Hg10 mi
8:56 pm40 °FClear.28 mph51%29.80 "Hg10 mi
7:56 pm40 °FPassing clouds.23 mph55%29.81 "Hg10 mi
6:56 pm41 °FPassing clouds.17 mph65%29.82 "Hg10 mi
5:56 pm41 °FPassing clouds.17 mph58%29.81 "Hg10 mi
4:56 pm42 °FPassing clouds.18 mph57%29.80 "Hg10 mi
3:56 pm43 °FSunny.13 mph62%29.79 "Hg10 mi
2:56 pm44 °FPartly sunny.17 mph63%29.79 "Hg10 mi
1:56 pm45 °FSunny.18 mph63%29.78 "Hg10 mi
12:56 pm44 °FScattered clouds.12 mph71%29.80 "Hg10 mi
11:56 am45 °FSunny.12 mph65%29.84 "Hg10 mi
10:56 am44 °FSunny.14 mph73%29.88 "Hg10 mi
9:56 am44 °FSunny.13 mph68%29.93 "Hg10 mi
8:56 am43 °FSunny.7 mph71%29.93 "Hg10 mi
Weather by CustomWeather, © 2016

See weather overviewHow to use our weather pages